Theta_e
317 318 319 319 320 320 321 321 321 321 322 321 322 322 322 323 322 323 323 323 323 323 324 321 319 317 315 315 315 316 316 317 318 319 321 324 320 317 320 320 320 321 320 322 322 324 325 328 331 333 329 326 327 331 338 340 340 340 350 357 353 356 353 352 360 356 355 359 361 355 353 359 361 358 356 357 354 353 355 353 353 354 353 355 354 354 354 355
315 316 317 318 318 319 320 320 321 321 321 321 322 322 322 322 322 322 323 323 323 324 324 322 320 317 316 315 315 317 316 319 323 326 326 324 321 318 318 317 318 320 318 320 321 321 324 329 333 330 326 323 327 332 337 339 339 343 357 359 354 359 352 349 353 350 355 359 359 357 353 355 360 356 355 361 358 353 356 355 354 354 354 356 354 354 355 355
315 314 315 316 316 318 319 320 321 321 321 321 321 321 322 322 322 323 323 324 323 324 324 321 319 317 316 315 315 316 317 325 329 331 329 323 322 321 320 319 318 318 317 318 319 321 324 328 331 327 324 323 326 333 333 335 338 341 352 357 353 356 353 347 347 348 354 356 358 358 355 355 356 354 354 359 359 356 358 357 355 355 355 355 354 354 355 355
316 315 315 314 315 316 318 318 319 320 320 321 321 321 321 322 322 322 322 323 323 324 324 321 320 318 315 315 316 315 320 332 334 332 330 323 324 324 322 321 319 318 318 318 320 322 323 327 328 325 324 325 328 332 332 333 338 340 349 357 350 351 356 349 346 349 352 355 358 356 357 357 355 355 354 355 360 361 357 354 353 355 355 354 354 354 354 355
318 317 315 315 314 315 316 317 319 320 320 321 321 321 321 321 322 322 323 323 323 324 324 322 320 318 316 315 316 315 322 335 336 333 330 324 326 326 324 323 319 318 317 318 320 322 324 327 327 325 324 326 329 332 332 332 335 340 344 348 346 349 356 348 344 351 353 356 356 356 360 358 356 357 354 354 363 363 355 351 352 354 355 355 354 354 354 354
318 318 317 316 315 314 314 315 317 318 320 320 321 320 321 321 322 322 323 323 323 323 323 322 320 319 317 315 315 315 322 331 333 334 330 325 326 325 326 325 321 318 317 319 320 322 327 328 326 324 324 328 331 331 332 330 333 341 341 341 346 347 350 347 347 351 353 356 356 357 358 355 356 358 356 355 359 358 352 350 353 354 355 355 354 354 354 353
319 318 318 317 316 315 315 315 316 317 319 320 320 321 321 320 321 322 322 323 323 324 324 323 321 320 318 316 316 316 321 326 329 332 329 329 329 326 326 326 322 318 317 319 321 326 328 328 326 322 326 330 330 329 330 329 333 344 344 343 347 346 346 349 350 349 349 353 355 355 356 355 358 359 358 356 355 354 352 352 353 355 354 354 354 353 353 353
319 318 318 317 316 315 315 314 315 316 317 319 320 320 321 320 321 322 322 323 323 324 324 323 322 320 319 317 316 318 325 329 331 332 332 332 332 328 326 326 322 318 318 319 322 328 327 326 325 324 328 329 329 328 326 331 339 348 346 343 346 347 347 348 348 347 348 353 353 354 356 356 357 356 356 356 355 354 353 351 353 355 354 353 354 353 353 353
319 318 317 317 316 316 316 315 315 315 316 317 320 320 321 320 321 322 322 323 323 324 324 324 322 321 320 318 316 323 332 334 334 333 332 332 330 326 327 326 322 318 318 319 322 326 326 327 326 326 329 327 327 326 325 333 340 341 338 342 346 347 347 348 349 348 349 354 355 359 361 357 354 355 356 355 354 354 352 351 354 355 354 354 353 353 353 352
318 317 316 316 316 315 315 315 315 315 316 317 319 320 321 321 321 321 322 323 323 324 324 323 322 322 322 319 318 329 334 332 333 331 328 330 328 326 326 326 323 319 319 321 323 326 326 327 327 327 327 326 325 325 326 331 332 329 329 339 345 346 348 347 349 350 351 355 355 362 367 359 353 357 362 356 353 355 352 352 355 355 354 354 353 353 353 353
318 316 316 315 315 315 314 315 315 315 316 317 318 319 320 321 321 321 322 323 323 324 324 324 323 321 322 320 320 326 330 329 330 329 330 332 328 326 328 328 326 323 323 325 325 327 326 326 327 325 325 325 324 325 326 328 328 327 327 335 344 346 347 349 351 351 352 355 354 361 366 359 356 360 363 356 352 355 353 353 354 354 354 354 353 353 353 354
318 316 318 319 318 317 314 314 314 315 315 316 318 319 320 321 320 321 321 322 322 324 323 324 323 321 322 320 320 324 326 327 327 330 332 331 327 327 328 329 329 326 324 326 326 326 326 325 325 325 325 324 325 326 326 328 326 327 326 334 346 347 348 352 352 350 352 355 353 357 362 362 362 362 358 352 353 356 354 353 354 354 354 354 354 354 353 353
317 318 322 323 322 320 317 315 314 315 315 316 317 319 320 321 320 320 321 322 323 323 323 323 323 322 322 321 322 325 325 325 326 330 330 328 327 329 330 329 330 328 326 326 325 326 326 325 326 325 325 324 326 326 326 328 325 328 333 336 347 347 348 352 349 350 353 351 352 354 357 364 366 358 354 353 355 355 355 354 354 354 354 354 354 353 354 353
317 321 325 324 324 323 321 317 314 314 315 315 317 319 319 320 320 321 322 322 322 323 324 324 324 323 323 323 325 326 324 324 326 328 325 323 326 329 330 330 329 328 327 326 326 326 326 326 326 325 326 326 326 326 327 328 326 331 333 337 347 342 346 356 346 349 354 350 352 351 352 363 366 355 352 353 354 355 356 354 354 354 354 354 353 353 353 353
318 323 325 324 324 323 323 320 316 314 315 315 316 318 319 320 320 320 321 322 322 323 323 324 325 325 325 325 325 326 325 324 324 324 323 321 324 329 331 331 329 328 326 326 327 327 327 326 326 324 326 326 325 325 327 330 335 335 327 331 344 339 344 357 347 345 352 352 351 349 354 364 365 355 352 355 355 356 355 354 353 352 353 352 352 352 352 353
319 324 326 325 324 323 323 322 318 314 314 315 316 318 320 320 320 320 321 322 322 324 323 325 329 329 327 325 324 327 326 326 326 324 324 322 323 328 331 331 330 329 327 327 327 326 326 325 325 324 324 325 324 326 326 328 334 337 327 326 336 337 336 344 347 343 347 355 354 352 361 368 366 355 351 356 356 356 356 354 353 351 351 352 351 352 352 352
320 325 327 327 326 323 322 322 320 315 314 315 316 319 319 320 320 320 321 322 323 323 322 326 331 331 328 326 325 327 326 327 328 326 325 323 323 325 329 330 331 329 327 328 327 325 325 324 324 324 324 324 323 325 323 321 325 331 329 325 332 338 332 335 350 346 344 356 359 356 358 365 370 357 351 356 356 356 355 354 354 352 350 350 350 352 353 352
321 326 328 328 327 324 321 322 321 316 314 315 316 319 320 319 320 320 321 323 322 323 323 324 327 330 329 327 327 327 326 327 327 325 323 322 324 325 328 330 330 328 327 326 327 326 325 323 324 324 323 323 324 323 320 320 323 326 326 326 330 336 334 338 351 352 349 356 360 358 355 361 369 358 352 356 355 355 355 354 354 352 351 352 350 351 353 353
321 325 326 327 328 324 321 321 321 317 314 316 317 318 319 319 320 321 323 323 323 327 332 328 326 330 329 328 328 328 326 326 325 324 323 324 326 329 330 329 328 328 326 326 326 325 324 323 322 323 322 323 324 323 322 323 324 324 324 326 328 328 330 339 347 347 348 353 359 361 356 358 366 361 355 356 355 355 354 355 354 352 353 354 352 352 352 353
321 323 324 325 326 324 320 320 320 317 314 316 317 317 323 327 328 328 328 326 326 329 333 329 326 329 327 328 329 326 325 325 324 323 324 326 327 329 329 328 328 328 326 326 326 324 323 323 322 322 322 324 323 322 323 323 323 324 324 325 326 325 325 332 341 344 347 352 356 359 357 358 362 360 356 355 355 355 353 353 354 353 353 353 352 352 352 352
324 325 325 324 324 322 319 319 320 316 314 316 317 317 325 332 332 331 328 327 328 330 330 330 329 329 328 328 328 326 326 324 323 324 325 327 328 328 327 328 328 329 328 325 324 324 323 322 323 323 323 323 323 322 323 323 324 324 323 324 324 324 326 329 337 346 350 350 350 355 359 359 361 359 354 354 355 354 352 352 353 354 354 352 352 351 351 351
326 324 322 321 321 320 319 320 319 316 314 316 317 318 325 330 328 327 326 327 329 329 330 330 330 331 329 329 329 328 328 326 324 325 326 327 327 327 327 328 329 329 328 326 325 325 323 322 323 323 322 323 323 324 324 324 325 325 324 323 322 325 327 328 335 345 347 345 343 350 354 356 359 358 354 354 355 354 352 352 353 354 353 352 352 351 351 351
324 322 319 318 319 318 319 319 317 316 315 317 318 320 326 328 328 328 327 329 330 328 329 329 329 330 330 329 329 328 329 326 324 325 326 327 327 327 327 327 328 328 326 327 329 325 321 323 324 322 322 323 323 323 325 325 326 326 324 321 320 324 322 323 333 341 341 342 345 350 352 357 360 358 357 354 353 354 352 351 352 353 354 353 352 352 351 351
324 320 317 317 318 319 319 318 316 316 317 319 319 322 327 327 328 329 327 330 331 328 327 329 329 330 329 328 327 328 328 328 326 326 325 326 327 327 326 327 328 328 327 328 328 326 324 325 325 323 323 323 324 325 326 326 325 325 325 322 320 323 321 323 332 337 338 338 346 354 351 356 365 362 360 357 353 355 352 352 352 353 354 353 352 352 352 352
323 319 316 316 318 318 317 316 316 317 319 321 321 324 327 327 329 328 328 332 334 332 329 328 330 331 328 327 328 328 328 328 327 327 326 326 327 327 326 327 327 328 329 327 327 327 326 326 326 325 326 325 323 327 328 326 324 322 324 324 323 324 323 323 329 335 332 328 338 345 335 341 363 364 361 360 357 357 353 349 351 352 354 352 352 352 352 352
323 318 315 317 320 320 320 319 319 322 324 326 326 326 326 327 329 328 331 335 332 332 331 330 331 330 329 329 328 327 327 327 328 327 326 326 326 327 326 327 327 328 329 328 328 329 328 327 328 327 329 329 326 328 329 327 322 319 324 328 325 326 324 325 330 333 327 326 335 339 327 329 346 354 360 361 359 360 356 351 349 351 353 352 352 352 352 352
323 318 314 318 324 325 326 325 325 327 328 329 329 327 327 329 329 327 333 334 331 331 329 329 330 329 328 328 327 328 328 328 327 326 327 326 326 327 326 328 327 326 328 327 327 330 330 328 328 329 329 328 327 327 327 327 322 319 326 328 327 329 327 328 327 325 327 328 333 344 337 329 332 343 355 359 360 361 359 357 351 350 352 352 352 352 351 351
323 319 315 318 324 325 325 327 327 327 328 329 330 329 329 330 328 328 333 331 330 330 327 326 329 327 327 328 328 329 329 327 327 327 327 326 327 326 326 328 327 327 328 326 324 328 329 328 329 329 328 326 328 328 328 326 323 325 328 327 328 329 327 330 327 325 328 324 327 343 340 327 331 346 354 357 363 362 359 360 355 350 351 352 352 352 351 352
323 321 317 317 322 324 325 328 328 327 328 330 330 330 330 329 329 331 335 332 329 327 328 327 328 328 327 328 328 328 328 327 327 328 327 326 326 326 326 326 326 328 327 326 327 327 329 328 329 328 327 328 330 329 328 326 326 327 327 327 328 326 328 328 324 324 325 321 322 331 332 326 330 346 355 354 357 361 359 358 354 350 351 352 352 352 351 352
323 323 320 317 320 322 324 328 328 327 328 328 329 330 329 330 334 333 332 334 329 326 328 327 328 328 327 327 327 328 327 327 328 328 326 327 327 326 327 327 326 328 328 328 328 327 327 326 328 329 329 329 329 328 326 326 328 325 328 329 325 328 332 332 333 329 322 321 322 322 328 331 328 337 352 354 357 361 358 357 356 351 351 352 352 352 352 351
324 324 323 322 321 323 326 329 329 327 328 328 330 330 330 333 338 336 334 334 328 327 326 326 328 328 327 328 327 327 327 326 328 327 328 328 327 327 327 328 328 329 330 329 327 328 328 327 329 329 328 328 327 327 326 326 326 324 329 329 323 330 335 338 345 333 319 323 325 323 329 332 328 335 346 351 357 357 355 361 361 353 352 352 351 351 351 350
327 324 324 325 324 325 328 330 330 329 328 329 330 330 335 338 336 336 337 331 326 327 327 327 327 328 329 328 327 328 327 327 327 328 329 328 329 328 328 330 330 326 326 327 326 328 330 328 329 328 329 329 326 328 329 328 327 325 329 323 320 326 327 330 339 329 323 329 326 326 331 329 333 345 348 349 353 351 351 354 355 352 352 351 351 351 350 351
328 327 327 326 325 324 324 326 328 329 328 329 330 332 338 339 336 337 337 331 327 327 328 328 326 327 329 327 327 327 326 327 328 328 329 327 329 329 327 329 332 327 325 326 324 324 327 329 329 328 328 329 327 328 325 326 329 324 324 322 319 322 319 323 332 327 326 329 322 328 333 325 332 345 348 350 348 344 343 344 347 351 352 352 352 351 349 350
327 329 329 329 328 326 325 325 325 328 330 330 332 336 337 337 338 339 335 331 330 328 328 328 326 327 328 327 327 327 326 327 329 328 328 328 328 328 328 327 328 327 327 328 326 323 322 324 329 330 328 328 328 329 326 327 329 326 327 326 324 323 318 319 326 322 321 324 323 328 330 324 329 339 345 345 341 342 342 344 347 347 350 352 352 351 350 349
326 328 330 332 332 328 326 324 324 328 330 330 337 341 340 337 338 335 331 331 331 329 329 327 326 326 326 327 327 327 326 327 328 329 328 329 327 328 331 328 327 330 330 329 327 325 322 323 329 331 328 327 328 327 328 328 327 328 329 325 323 325 321 321 326 324 321 324 326 325 326 332 337 342 348 343 340 345 344 345 349 349 351 353 351 352 351 350
326 328 329 332 333 331 328 324 323 328 330 333 342 344 341 340 338 332 331 331 330 330 330 329 328 325 324 325 327 328 327 328 329 328 326 328 329 329 331 329 328 332 333 330 328 325 323 324 331 331 328 330 329 328 329 324 327 330 325 323 325 327 326 323 325 330 327 323 326 325 327 336 343 345 350 350 347 348 346 345 347 347 350 352 351 352 352 351
327 330 331 333 333 332 329 325 325 329 330 334 346 348 344 339 336 332 331 330 330 330 331 329 328 326 322 324 327 326 328 327 328 327 325 327 328 328 332 331 330 331 332 332 330 327 325 324 330 332 331 335 330 329 329 326 328 327 321 326 330 327 330 325 322 330 330 322 324 328 326 331 338 342 348 353 349 347 349 349 345 344 347 351 351 351 351 352
328 331 332 331 330 331 330 327 328 330 330 334 345 352 347 338 333 329 328 329 330 331 331 329 328 329 326 326 327 328 327 325 325 326 326 328 330 329 332 331 330 330 328 330 332 332 328 324 329 333 332 335 332 329 330 330 331 327 323 327 326 321 324 325 321 323 324 321 324 326 326 328 332 338 345 350 351 350 351 351 347 345 345 346 350 350 350 350
325 330 332 330 329 329 328 328 330 330 331 337 345 348 343 336 333 329 328 330 330 331 333 331 329 331 331 329 329 331 330 327 328 327 326 329 331 330 331 331 330 329 330 333 333 335 333 327 328 335 333 333 334 332 328 330 332 331 327 328 329 325 322 325 325 321 320 322 323 324 328 332 338 344 347 349 353 354 353 354 351 345 342 343 347 349 349 349
326 329 331 331 330 328 327 328 331 331 334 340 343 341 335 333 332 329 329 331 330 330 331 331 331 332 332 331 330 331 332 331 332 330 329 331 333 331 331 332 330 329 330 332 332 337 342 334 327 334 336 332 332 331 329 330 331 330 329 326 327 330 326 327 328 322 321 325 325 327 330 333 342 347 345 348 351 352 350 352 349 343 341 344 343 345 347 346
329 332 332 331 329 327 327 330 331 332 335 338 338 335 332 332 330 328 329 330 329 330 330 329 331 332 331 331 331 330 332 332 332 332 332 332 333 333 332 330 332 331 333 334 334 334 339 337 331 331 332 328 330 331 330 332 331 329 329 326 325 327 324 325 326 326 327 325 325 331 329 331 341 343 343 349 351 349 346 343 345 342 341 344 343 343 346 345
329 335 334 330 329 327 329 332 332 331 334 336 335 334 331 330 329 329 328 329 329 328 329 329 330 331 330 329 329 330 331 332 331 330 332 332 332 332 332 331 331 331 333 336 334 330 336 342 336 331 333 330 330 332 329 329 332 330 328 328 329 328 324 322 323 326 328 325 329 336 333 338 349 347 345 348 345 344 342 340 343 344 344 347 346 345 345 345
328 333 332 329 330 328 329 336 337 335 335 333 331 332 330 329 330 329 328 329 329 328 328 328 328 329 330 327 329 329 329 330 330 329 331 333 332 330 330 332 333 332 335 336 334 332 336 340 334 334 343 339 331 331 330 330 332 329 328 328 327 328 327 325 325 327 327 326 331 337 333 339 351 348 343 343 342 343 343 343 345 346 347 349 348 348 347 346
329 331 331 329 330 329 329 333 336 337 336 333 330 329 330 329 328 328 328 327 328 328 327 328 327 327 327 325 327 328 328 328 328 327 329 331 331 328 327 330 332 334 334 335 334 331 332 337 338 337 340 337 332 331 329 330 330 328 328 327 326 328 325 325 330 331 328 328 330 333 332 337 348 348 343 343 345 347 347 347 349 351 353 351 347 349 348 348
330 332 330 328 328 329 329 329 330 332 332 334 334 331 330 330 327 326 326 325 325 326 326 326 326 325 324 324 325 326 326 325 326 326 327 327 328 327 325 328 332 334 334 333 333 331 333 339 341 336 330 327 329 330 328 329 330 327 328 325 324 325 322 324 327 323 327 334 335 334 336 342 350 349 345 346 349 350 351 350 351 352 354 353 350 349 349 348
331 332 331 331 328 327 329 326 326 328 331 334 339 333 328 330 328 324 325 324 324 324 323 323 324 324 324 324 325 325 325 325 326 327 327 326 326 326 324 327 327 328 330 329 328 334 341 342 341 339 334 330 333 336 335 333 327 323 324 324 328 329 323 323 322 319 330 340 336 337 343 348 351 349 347 349 350 352 352 350 350 351 352 352 351 351 350 349
331 332 330 332 334 332 331 327 324 325 328 333 335 330 325 327 326 325 324 323 324 324 323 323 322 322 323 323 324 327 328 328 328 328 327 326 325 324 324 325 324 323 325 325 326 335 341 336 333 335 334 331 333 334 331 327 323 322 326 330 334 334 328 325 323 324 333 333 332 343 351 349 350 349 349 350 351 352 351 349 349 348 349 351 352 351 352 351
332 331 328 331 337 338 334 330 325 325 327 331 331 326 324 324 322 323 323 322 324 324 324 324 322 322 323 325 327 329 330 332 332 329 328 325 325 325 324 324 323 321 321 323 325 331 336 332 327 326 326 326 326 327 325 324 323 327 331 334 337 340 338 337 336 339 341 335 336 347 351 348 349 349 348 349 349 350 350 349 348 347 348 350 351 351 352 351
327 327 326 330 336 338 335 331 326 324 327 335 337 328 323 323 322 322 323 325 325 323 323 324 323 322 323 326 330 331 330 330 331 330 328 326 326 327 326 326 324 321 320 322 323 325 330 333 329 324 325 326 325 325 325 323 326 332 334 334 338 342 342 342 343 344 344 342 343 346 346 347 348 347 347 347 346 347 348 347 346 346 346 348 348 350 350 348
325 327 328 331 336 337 335 330 327 326 327 333 337 328 321 324 324 323 325 326 326 324 323 324 324 323 322 324 327 327 325 326 327 328 327 325 326 327 326 326 324 321 321 322 323 322 324 328 332 329 326 326 326 327 325 324 330 334 333 333 338 342 342 342 343 344 344 344 343 342 344 345 343 341 344 344 345 346 345 346 347 345 345 346 346 347 347 346
325 328 328 334 341 341 337 331 326 328 327 327 330 327 323 323 322 324 326 323 323 324 323 324 325 325 323 322 323 323 322 323 324 324 323 323 324 325 325 325 323 321 322 323 324 325 325 327 333 334 328 326 327 326 323 324 331 333 332 332 337 341 342 342 342 342 343 343 343 344 344 344 341 338 339 341 343 344 344 345 346 344 345 346 346 346 346 346
324 327 329 336 343 338 332 328 323 324 326 324 324 324 322 322 321 324 327 324 321 322 323 323 323 325 326 324 322 322 321 321 322 322 322 322 322 321 321 322 321 320 323 324 324 328 328 327 329 330 327 329 331 325 323 330 338 337 334 331 334 339 341 341 340 340 340 341 343 344 343 343 341 339 339 340 342 343 344 345 345 345 345 345 346 346 346 346
Wind_Speed
15 15 14 14 14 13 12 12 11 11 11 11 10 10 10 10 10 9 9 8 8 9 10 10 9 8 7 8 8 9 8 6 5 7 7 5 2 4 8 8 10 11 11 13 13 13 13 12 11 10 14 17 18 20 18 16 15 10 4 2 2 2 3 3 4 5 4 3 4 8 8 6 4 5 7 7 7 10 9 7 10 10 8 13 16 26 33 30
15 15 15 15 14 14 13 12 12 11 11 11 10 10 10 10 10 10 9 9 9 9 10 10 9 8 8 8 9 9 7 6 4 2 4 5 3 0 5 7 8 9 9 10 11 11 12 11 11 12 15 19 18 15 13 9 12 10 2 3 4 4 4 5 6 6 4 6 7 7 8 8 6 8 11 5 3 8 7 5 7 10 12 16 23 31 33 32
16 16 16 15 15 14 14 13 12 12 11 11 10 10 10 10 10 10 9 9 9 9 10 10 8 8 8 8 8 8 7 5 1 4 8 7 6 5 1 3 4 5 6 7 9 10 11 10 11 14 17 18 16 13 10 6 11 11 5 3 5 5 4 6 9 7 7 10 9 7 8 8 7 11 11 5 5 5 5 7 8 12 18 26 32 34 34 33
16 16 16 16 15 15 14 13 13 12 11 11 10 10 9 9 10 9 9 9 9 9 10 9 8 8 8 8 7 8 7 4 4 5 8 8 8 8 6 3 1 3 3 5 8 9 10 10 11 14 15 14 16 14 8 7 8 7 6 4 6 7 5 7 10 8 10 13 11 10 8 6 7 9 9 9 7 2 7 12 13 17 24 31 34 34 35 34
16 16 16 16 16 15 15 14 13 12 11 11 10 10 9 9 9 9 9 9 8 9 9 9 8 8 8 7 7 7 5 4 3 3 5 6 8 9 9 5 2 2 3 5 8 9 9 10 10 13 10 8 11 10 8 12 10 2 1 9 13 10 5 9 12 10 12 14 12 11 8 7 9 7 10 13 7 4 11 14 16 23 27 32 34 33 34 33
16 16 16 16 16 16 15 14 13 12 11 10 10 10 9 8 8 8 8 8 8 8 9 8 7 8 8 8 8 7 2 2 1 3 3 4 6 8 8 6 4 1 4 6 8 8 9 9 9 10 7 7 9 7 13 16 8 3 1 12 19 15 9 11 15 12 14 16 13 11 9 11 9 5 11 14 7 5 10 14 18 25 27 30 33 33 34 34
17 17 16 16 16 16 15 15 13 12 11 10 10 9 8 8 7 8 8 8 7 7 8 8 7 7 8 8 8 6 4 3 1 4 2 3 5 6 7 6 4 1 5 7 8 9 10 9 9 11 7 7 9 9 14 12 7 8 2 11 17 18 16 17 18 14 14 15 14 13 11 11 10 7 10 12 8 5 9 14 19 26 28 27 31 32 34 34
17 17 17 17 16 16 16 15 14 13 11 10 9 9 8 7 7 7 7 7 7 7 7 7 6 7 8 8 8 6 5 2 2 3 1 4 5 4 4 4 3 2 5 7 9 10 8 8 12 13 6 5 9 9 15 12 4 4 3 10 13 15 19 21 19 15 15 15 15 15 12 11 12 10 9 11 11 9 11 16 21 27 28 26 28 31 32 32
17 17 17 17 17 17 16 15 14 13 12 10 9 8 7 7 6 6 7 7 7 6 7 7 6 7 7 7 7 5 1 3 5 3 3 5 4 2 3 2 2 4 6 8 10 9 5 7 10 10 7 10 13 10 14 9 1 5 3 10 12 13 19 23 19 18 17 17 18 13 8 10 12 8 6 11 14 12 13 18 25 28 27 26 25 28 32 33
18 18 17 17 18 18 17 15 14 12 11 10 8 7 7 6 6 6 6 6 7 6 6 6 6 6 7 6 5 2 2 5 3 3 4 5 3 2 1 3 4 5 7 7 10 8 4 5 8 12 13 13 11 11 12 5 4 12 8 7 15 18 20 22 20 21 17 17 19 11 4 9 12 7 3 11 15 14 16 22 28 28 26 27 24 26 31 33
19 18 18 17 17 18 17 15 13 11 10 9 8 7 6 6 5 5 5 6 6 6 6 6 6 6 7 7 4 3 2 2 1 2 2 4 5 1 2 5 6 6 6 8 10 7 5 7 11 15 12 10 12 14 12 9 13 16 9 1 11 16 14 16 17 19 14 11 19 13 4 5 8 5 6 14 17 17 20 23 27 27 26 26 25 25 27 30
19 18 17 17 16 16 16 14 12 10 9 9 7 6 6 5 5 5 4 5 6 5 6 6 6 6 8 10 8 4 1 1 3 3 3 5 5 3 5 4 4 4 2 3 5 5 9 12 15 14 10 9 10 8 10 16 20 18 10 5 5 5 4 11 10 15 13 7 18 15 6 2 5 7 11 17 20 20 22 23 26 26 26 26 25 26 26 27
19 18 16 16 16 15 14 13 11 10 9 8 6 6 6 5 5 5 4 5 5 5 6 6 7 7 9 10 5 5 6 5 4 5 6 6 3 4 5 2 1 1 3 6 7 9 10 10 12 13 11 9 6 6 13 18 16 13 8 3 5 2 4 11 9 13 11 8 22 17 2 5 8 14 15 18 23 24 23 24 26 26 26 27 23 25 28 26
19 16 15 15 15 15 14 12 10 9 8 7 6 6 6 5 5 5 4 4 4 5 5 5 6 7 9 7 3 7 8 9 9 9 9 7 4 3 4 4 1 2 5 8 8 9 9 9 10 12 10 8 9 11 12 11 7 5 4 3 3 3 5 9 10 12 7 9 24 15 1 6 7 16 19 21 27 26 24 24 25 26 26 28 24 24 28 27
18 15 14 15 15 14 13 12 10 8 7 6 6 6 6 5 5 5 4 5 4 4 4 5 6 6 10 9 5 8 9 11 13 12 10 9 7 5 5 7 5 3 4 7 9 10 10 9 8 8 8 10 11 10 6 4 4 2 1 5 2 5 5 3 7 14 9 7 17 10 0 7 5 15 23 23 28 25 23 22 24 25 25 28 25 24 27 27
16 14 14 15 15 14 13 12 9 7 6 5 5 6 6 5 5 5 5 5 4 4 5 4 4 5 8 6 5 9 11 12 10 9 13 13 11 8 4 6 10 7 4 6 8 9 8 7 7 7 8 8 6 3 4 5 5 3 2 4 5 6 4 2 3 12 10 5 8 5 2 4 4 12 21 23 27 25 21 21 22 24 24 28 27 24 26 27
14 13 13 15 16 15 13 11 9 6 5 4 5 6 5 5 5 6 5 6 5 5 6 5 6 8 7 5 3 6 7 7 6 7 12 12 12 11 8 9 12 10 7 6 6 6 5 5 4 6 5 3 1 3 4 4 4 4 2 4 6 7 3 1 4 10 9 5 5 5 3 5 6 9 17 22 27 25 21 21 23 24 24 27 27 24 25 28
13 12 13 15 17 16 13 11 9 6 4 4 5 5 5 5 5 6 6 6 5 4 5 8 7 5 4 5 4 3 3 3 6 6 7 7 8 9 9 10 9 9 8 6 7 6 5 4 2 2 3 2 1 4 1 5 4 3 3 2 5 5 2 5 4 6 10 5 6 6 5 8 8 5 15 21 27 26 23 24 24 24 24 24 26 25 25 27
12 13 15 15 17 17 14 10 7 5 4 4 5 5 3 4 5 5 5 6 6 4 3 6 7 2 3 7 9 7 3 4 6 6 5 6 6 6 6 6 8 8 6 2 4 7 6 2 2 2 3 4 5 6 9 10 8 5 6 4 4 5 4 6 5 7 13 6 6 10 8 8 8 6 11 19 26 24 21 21 22 23 23 22 25 27 26 26
13 14 15 16 17 16 12 9 6 4 4 5 4 3 1 1 2 2 6 10 11 8 9 10 10 11 11 10 7 2 6 8 7 6 4 5 7 8 7 7 8 7 5 3 2 5 7 3 2 5 7 10 10 9 10 10 9 8 9 7 4 4 6 3 4 6 12 7 5 11 9 8 10 8 11 18 21 17 16 17 20 23 24 23 26 28 27 25
15 16 16 16 16 14 10 7 5 4 4 4 4 4 2 2 2 2 8 11 12 12 15 15 15 19 17 10 4 3 4 5 7 6 5 7 8 6 7 7 4 4 6 6 3 2 5 4 7 11 12 13 12 9 7 7 10 11 9 6 5 4 6 4 4 4 9 7 5 8 7 8 10 9 10 15 14 14 19 19 21 25 25 24 25 27 27 25
17 17 17 15 13 10 7 4 3 3 3 3 4 5 3 5 5 6 8 9 11 11 13 13 15 19 17 12 6 6 11 7 8 8 8 9 10 7 6 5 3 3 4 3 1 1 2 5 12 16 13 11 11 8 7 8 9 8 4 3 6 4 4 3 3 5 8 5 4 7 9 7 9 7 8 13 16 18 25 26 25 28 26 23 24 25 27 25
18 18 16 13 9 6 3 1 1 1 2 2 3 5 4 6 6 7 6 7 10 11 11 12 15 18 17 14 7 8 15 9 7 11 12 11 12 11 7 4 4 4 2 2 4 3 2 7 16 17 10 7 9 10 8 6 4 3 3 3 5 6 2 3 5 5 7 4 3 6 5 3 4 3 5 14 19 17 21 25 24 28 29 28 27 27 27 26
18 17 14 10 6 3 1 1 2 2 2 2 2 5 6 6 6 8 7 4 6 8 11 12 14 17 18 13 6 10 17 12 7 10 14 15 14 11 9 7 4 4 5 6 7 7 7 14 20 13 7 10 11 11 6 1 5 5 5 4 6 8 4 4 6 4 3 3 4 6 4 4 3 4 5 10 13 11 13 18 19 24 28 28 27 27 28 27
18 16 12 8 4 2 3 3 5 6 6 7 6 5 5 6 6 8 8 2 3 6 6 9 11 13 13 9 7 11 11 10 11 11 15 19 16 9 7 8 5 4 8 7 5 6 10 19 20 8 6 10 9 7 4 1 3 5 5 6 8 11 9 6 5 1 5 3 4 5 3 5 4 5 7 5 7 8 9 13 17 22 24 25 25 26 27 27
17 15 10 5 3 4 4 4 5 7 8 10 8 6 4 4 6 6 4 3 3 4 1 5 8 7 7 10 11 8 2 6 12 13 14 19 18 11 5 4 3 4 7 5 3 3 6 9 9 6 5 4 3 3 4 4 3 3 5 6 7 9 8 6 3 2 2 3 6 4 4 4 4 4 8 5 6 8 8 9 14 20 23 25 26 27 28 28
15 13 9 2 2 5 5 6 8 9 9 10 10 6 3 3 5 4 2 4 3 3 3 4 7 4 6 12 12 7 0 4 4 8 15 19 19 13 6 3 2 4 4 2 3 3 5 6 5 2 1 2 2 3 4 5 5 4 7 5 6 5 4 5 2 1 3 3 4 1 4 2 2 5 5 6 6 8 8 8 11 17 22 26 27 28 29 30
12 11 8 2 2 5 7 8 9 9 8 8 10 7 3 2 3 2 2 2 1 2 3 5 6 4 7 13 13 10 5 3 1 5 14 20 17 9 5 5 3 5 5 2 3 7 4 5 5 2 3 1 4 5 4 4 4 7 9 6 7 5 4 4 3 4 2 2 5 5 2 2 3 5 0 7 6 8 11 11 11 15 21 25 27 29 29 29
10 9 7 2 2 4 6 5 6 6 4 2 5 6 5 1 3 2 3 2 1 2 2 4 5 4 8 11 11 11 8 6 2 8 15 19 16 7 4 8 6 6 7 2 4 8 6 8 7 1 1 3 5 6 5 4 3 7 7 5 5 5 3 2 2 4 2 2 6 7 2 3 2 4 1 5 4 7 11 11 10 15 22 26 27 29 29 29
8 7 6 2 1 4 4 3 3 3 2 1 3 4 3 1 0 4 3 0 2 2 2 4 4 6 9 6 3 7 6 7 6 10 14 15 14 10 7 8 7 4 5 3 4 8 10 16 13 4 6 6 4 4 5 4 4 4 5 5 6 7 6 4 0 1 3 2 9 9 6 5 1 4 2 3 4 7 9 7 7 12 19 25 27 28 30 30
7 5 4 2 2 3 3 2 1 2 3 2 5 2 0 1 3 5 1 2 1 1 1 1 3 5 8 5 2 5 4 5 5 7 9 8 7 7 4 3 3 1 5 4 5 8 8 11 9 6 10 6 0 3 4 4 4 4 5 5 5 7 5 5 4 3 3 5 8 6 6 7 3 4 5 7 8 6 8 7 8 10 17 25 27 28 30 31
5 3 1 0 2 3 3 2 2 2 2 2 2 2 2 3 2 1 1 2 1 2 3 3 3 3 6 6 4 5 3 3 5 6 6 5 3 4 3 3 2 2 4 3 3 6 6 7 6 4 7 6 3 3 5 7 6 4 3 4 4 5 4 4 4 2 2 6 5 4 7 5 2 4 6 11 10 7 8 10 12 14 19 24 27 28 29 30
5 4 3 4 5 5 4 3 4 3 1 1 2 4 4 4 0 3 2 2 2 4 5 5 5 6 6 4 3 5 4 2 6 6 5 5 4 4 5 7 6 4 2 3 2 4 5 7 5 5 2 5 6 2 2 3 3 3 1 2 2 0 2 4 4 3 2 5 5 3 6 3 2 3 4 10 10 10 13 15 16 18 21 25 26 27 28 28
5 6 5 5 5 4 3 3 4 5 3 1 2 4 4 3 2 4 2 3 3 2 2 5 7 7 8 6 4 4 4 4 6 5 4 3 2 3 4 5 4 4 1 1 1 1 3 6 5 5 4 4 5 5 6 4 2 4 4 5 3 3 2 3 3 1 3 5 5 3 4 2 3 2 3 5 6 8 12 15 15 15 19 23 23 24 26 26
7 7 7 5 3 2 4 6 6 6 3 2 4 5 3 1 4 3 2 4 2 1 2 1 6 6 5 6 5 6 7 6 6 5 3 4 2 3 3 3 5 5 2 1 1 1 3 3 6 5 5 1 2 5 4 3 2 3 2 4 0 3 5 2 3 4 3 2 3 3 1 3 3 2 3 3 1 4 8 11 13 13 16 19 20 23 25 25
8 8 7 5 4 2 4 7 8 7 3 3 5 3 1 3 4 2 2 3 2 4 6 5 2 4 4 5 5 8 11 7 5 4 3 3 2 3 1 1 3 5 4 3 1 1 3 4 7 6 7 3 6 9 4 2 2 3 2 1 5 4 7 2 3 2 2 3 2 2 2 2 3 3 5 6 3 2 4 7 11 13 16 19 21 23 24 25
6 8 7 5 5 4 5 7 9 7 3 4 4 1 3 3 4 3 4 5 5 6 5 4 2 1 1 3 3 5 7 5 3 4 2 2 2 5 3 2 3 1 3 4 1 1 1 4 5 6 8 8 12 11 3 3 5 2 3 4 4 2 4 3 1 3 5 2 3 2 4 1 1 1 4 6 3 4 2 4 6 10 15 18 20 22 23 24
6 8 6 3 6 7 8 8 9 6 3 4 1 3 3 4 5 4 9 9 6 6 4 2 3 4 5 3 4 4 2 1 1 3 1 1 2 4 3 2 7 9 7 9 5 2 2 3 5 6 8 9 13 12 6 12 15 7 4 2 1 2 2 2 2 1 2 2 2 3 4 2 1 3 3 4 5 6 5 5 3 7 12 16 19 21 22 22
7 8 4 4 7 7 8 9 8 5 3 3 1 3 2 4 7 10 19 14 6 5 4 2 3 3 4 5 5 7 7 4 4 1 1 2 1 2 3 2 5 11 15 14 5 2 3 2 4 6 8 6 6 7 5 10 14 10 5 5 3 2 2 3 0 2 1 2 1 2 4 1 2 4 5 7 8 7 6 7 5 7 13 17 21 23 23 23
8 7 2 5 7 6 9 10 7 5 2 1 3 3 4 5 6 13 25 19 7 6 4 3 5 4 3 5 5 5 5 5 6 3 2 3 2 1 5 4 1 6 13 14 6 1 3 3 3 6 7 5 2 4 5 4 6 7 6 7 6 3 1 2 2 1 1 1 2 2 2 2 5 3 4 7 7 5 5 5 4 6 12 16 19 21 23 25
6 5 2 7 8 5 9 10 4 2 1 2 2 3 5 3 5 12 22 21 11 9 9 5 5 5 3 6 5 4 4 4 6 5 2 4 4 1 6 9 4 3 7 8 6 3 2 2 2 4 5 3 2 5 3 4 3 2 2 4 4 4 4 4 4 4 1 2 1 4 3 3 6 3 2 4 5 4 2 1 1 3 8 10 10 12 16 22
6 3 3 10 9 3 6 6 1 2 2 3 5 5 2 1 4 10 17 17 11 9 9 7 6 5 4 5 4 5 5 3 5 5 2 5 7 3 9 15 14 10 7 3 3 2 0 3 2 3 4 5 7 7 2 4 5 2 2 4 4 3 5 3 4 5 2 3 2 3 3 3 6 5 6 6 7 9 10 7 7 7 7 8 6 3 6 13
9 4 5 13 12 4 2 1 3 1 2 8 9 4 3 4 5 8 11 11 8 6 7 5 5 6 5 5 5 7 7 4 6 7 2 4 8 10 14 15 14 10 6 2 3 4 2 3 3 4 5 6 8 8 5 7 6 4 5 6 5 5 4 2 3 3 1 2 1 3 2 3 5 7 8 11 14 17 21 19 15 14 15 16 13 8 4 6
12 8 1 10 16 10 2 1 2 2 4 7 4 4 8 9 9 8 6 7 6 4 3 2 4 6 5 5 5 6 6 5 5 8 6 3 6 15 22 17 9 5 3 2 1 2 2 1 3 3 5 7 9 9 9 9 7 4 5 7 7 8 8 5 3 3 3 2 2 4 2 3 4 6 9 13 15 16 21 24 22 20 18 15 12 9 6 6
9 7 7 2 12 14 4 2 1 3 4 6 4 4 5 6 11 12 8 9 12 8 4 6 8 8 7 7 6 6 7 5 3 5 6 5 5 13 23 21 13 9 6 2 3 3 1 1 3 4 2 3 4 4 5 6 6 4 6 10 11 11 10 6 2 3 3 4 1 4 4 4 4 6 10 12 12 13 18 24 26 23 18 13 10 9 6 5
6 3 7 8 4 1 4 7 5 1 2 4 3 4 5 3 7 14 13 11 16 14 10 11 13 11 9 9 7 7 8 6 4 4 5 5 4 7 17 21 22 21 17 12 9 5 3 2 2 5 4 3 4 6 6 4 4 6 10 15 15 13 9 4 1 1 3 2 2 2 4 2 5 9 10 10 11 11 13 19 23 21 16 12 8 5 2 2
4 2 3 5 6 7 8 9 9 4 1 4 2 3 7 5 3 11 12 10 16 16 10 10 13 10 8 8 5 5 8 6 6 6 5 5 2 5 14 16 19 24 22 17 14 6 4 4 3 3 2 3 4 5 5 5 6 8 12 15 15 13 9 5 4 4 4 2 3 6 2 5 4 8 8 7 8 9 11 16 19 18 14 10 8 5 3 2
4 2 3 3 2 1 3 8 11 7 6 6 4 3 8 8 5 6 7 8 15 16 8 7 12 10 8 7 3 4 8 6 5 5 5 6 5 6 11 8 11 22 21 13 11 6 4 2 4 3 3 5 5 7 8 8 8 10 13 14 14 15 13 10 7 4 3 5 0 2 6 7 4 7 7 8 8 10 13 16 17 18 14 9 7 5 4 4
6 2 3 6 3 3 5 10 8 10 10 6 5 5 6 7 7 6 5 4 7 11 8 5 8 10 9 8 5 3 5 4 3 4 3 6 6 5 6 4 6 19 18 7 6 6 3 2 4 4 5 7 8 9 9 9 9 10 14 15 13 14 14 13 12 11 11 11 5 5 10 9 6 5 6 9 12 15 18 20 21 21 16 10 7 6 8 8
9 5 8 10 6 7 12 12 7 9 8 6 5 4 5 7 6 5 7 6 3 4 7 5 5 7 8 8 7 4 3 1 2 4 2 4 5 3 3 2 4 11 12 4 3 5 3 2 4 4 5 6 6 7 8 6 9 12 15 16 14 14 14 14 13 11 10 8 6 8 10 8 7 9 10 13 18 20 21 22 20 18 15 12 10 9 11 11
7 7 10 8 5 9 12 10 7 5 4 5 4 3 4 6 6 4 6 11 10 6 5 6 6 5 5 7 7 3 5 5 5 8 7 6 5 3 2 3 3 6 6 2 3 3 3 1 3 5 4 4 5 6 7 4 9 12 15 16 14 12 11 10 11 11 9 5 6 10 9 5 7 12 13 15 18 19 19 19 18 15 15 14 13 13 15 14
6 6 8 3 1 9 11 6 7 6 4 5 6 5 5 6 9 8 5 8 14 12 9 10 9 5 3 5 6 8 12 12 12 15 16 15 14 11 11 12 9 5 3 1 2 2 2 2 1 3 2 3 5 5 6 3 5 7 9 12 12 10 9 9 10 13 12 8 6 7 4 5 7 11 10 11 15 16 15 17 17 16 15 15 16 17 18 18
Wind_Direction
339 338 335 333 333 332 333 332 333 332 333 332 334 337 338 339 338 338 338 337 335 332 332 329 326 322 317 316 320 329 331 329 313 301 309 336 344 232 226 213 202 205 219 231 241 252 259 256 256 271 286 302 300 282 282 273 248 229 212 114 135 171 176 185 193 187 157 160 188 194 184 150 151 172 152 145 144 134 150 171 167 182 180 178 176 161 163 167
341 339 335 333 331 329 330 329 330 330 331 330 331 333 335 338 337 338 337 334 333 332 331 330 329 322 316 317 326 336 335 334 330 334 2 11 35 103 231 225 213 215 221 228 234 246 256 252 259 287 298 306 302 273 270 255 207 196 143 105 186 189 182 181 173 183 153 151 175 177 176 167 157 159 159 153 142 135 129 133 150 156 145 157 162 160 168 170
343 341 337 334 330 329 327 326 327 327 328 327 328 330 333 335 336 339 336 333 332 331 331 331 330 321 316 319 332 340 337 345 58 77 43 41 57 65 94 199 203 214 220 223 228 233 242 256 276 298 309 311 303 279 273 246 197 197 160 103 226 184 152 179 161 169 157 150 151 140 161 169 154 157 164 170 163 161 156 146 150 150 141 148 159 165 170 171
343 341 339 336 332 329 326 325 324 323 325 324 325 327 329 332 333 337 335 332 331 331 333 333 330 320 317 321 334 341 348 24 114 87 45 51 60 52 52 65 131 184 208 212 217 226 238 260 278 294 307 302 292 290 279 240 216 202 165 151 209 156 125 185 167 157 152 150 151 142 146 151 154 168 176 166 151 210 197 175 169 161 152 154 162 169 171 173
340 339 338 336 333 330 326 324 321 320 321 319 322 323 327 329 330 335 333 331 331 332 334 333 330 320 319 322 330 337 359 51 115 91 55 56 57 42 38 37 39 165 195 194 207 222 234 251 270 289 294 274 288 297 276 256 235 223 168 158 160 146 135 186 169 150 148 146 146 145 146 157 163 176 181 170 159 229 206 191 177 164 161 163 165 169 173 176
338 336 336 335 333 330 326 323 320 317 315 315 318 319 325 325 325 332 329 330 330 331 334 334 329 321 321 320 327 331 346 70 136 127 86 49 49 33 28 26 18 152 177 188 205 213 229 246 266 288 292 281 302 287 290 291 228 186 276 156 155 156 157 175 166 153 152 145 147 157 163 161 160 174 181 181 192 230 203 185 171 163 163 167 168 170 175 177
337 335 333 332 329 328 324 322 318 315 312 311 313 317 323 322 323 326 324 327 326 329 331 330 327 323 324 322 330 327 303 300 212 159 140 10 10 11 16 14 10 180 173 187 200 199 227 255 276 291 289 277 295 280 306 326 168 162 154 160 164 164 158 163 164 161 163 156 157 159 161 164 169 178 183 192 195 189 182 174 169 164 161 165 172 175 178 180
336 333 331 328 325 323 322 321 318 315 311 308 310 314 318 318 316 318 320 322 322 326 327 329 326 319 324 326 334 327 311 330 124 139 138 322 321 342 5 4 30 146 168 179 194 196 228 277 294 294 281 278 308 314 332 351 127 133 138 164 170 166 159 163 166 169 168 159 157 156 165 182 185 181 184 191 179 167 171 171 171 167 163 166 173 179 181 181
335 332 329 325 320 318 318 319 318 316 312 307 306 308 313 314 310 311 316 317 318 321 322 326 320 317 324 324 332 331 338 100 99 72 353 332 311 306 349 350 68 139 161 173 190 196 237 289 294 291 283 297 312 327 342 355 76 336 283 174 167 165 162 165 169 172 167 157 157 156 172 193 188 176 185 191 176 171 172 169 170 167 171 174 174 179 180 180
334 331 327 322 317 315 315 317 317 316 312 305 302 303 308 306 303 302 307 312 313 316 316 319 315 314 317 319 333 328 140 121 89 7 341 346 339 278 4 56 86 122 147 162 181 191 240 281 299 304 293 296 317 327 335 343 320 319 302 179 166 166 167 171 172 176 168 160 167 161 170 195 183 170 201 195 178 173 169 167 170 168 175 181 178 177 179 182
334 331 328 322 317 314 314 315 315 314 308 304 297 294 297 297 295 291 299 306 305 311 309 308 310 307 308 311 293 233 133 108 277 313 312 345 351 223 127 83 84 105 136 157 172 191 251 287 302 303 292 300 324 325 325 327 325 317 314 339 172 168 170 178 176 179 168 163 178 158 113 198 179 189 217 188 177 177 171 168 174 176 178 182 184 185 185 187
336 334 330 326 322 319 318 316 313 309 303 301 292 284 286 283 281 279 287 297 298 309 304 302 304 302 306 298 273 216 137 242 256 276 285 332 348 128 119 82 74 87 128 189 212 253 287 303 304 298 298 311 319 329 324 316 319 315 322 8 182 179 194 200 187 182 173 168 177 148 74 265 204 225 215 184 179 179 175 174 179 185 184 182 187 192 196 196
337 337 335 331 329 325 324 321 313 304 299 298 287 276 273 270 273 270 276 286 292 300 296 298 299 304 306 292 260 168 173 201 225 260 278 309 327 134 125 101 35 351 298 286 284 296 300 305 302 299 310 319 310 309 308 303 309 312 323 52 168 271 276 217 198 180 180 169 168 151 61 252 228 229 211 184 183 179 178 182 185 191 190 187 190 192 196 198
339 340 338 335 332 328 326 323 315 303 296 295 282 267 264 264 266 258 264 272 279 291 295 297 293 301 297 278 191 168 177 179 200 232 260 285 281 207 167 167 165 228 261 275 279 293 294 294 301 303 301 296 300 304 308 305 309 320 325 16 157 220 262 223 189 170 179 179 169 151 330 250 247 236 217 190 187 183 180 185 188 194 193 191 193 189 191 194
337 338 339 337 334 330 324 320 317 307 296 292 275 262 260 259 258 250 253 259 263 275 281 286 284 300 298 281 205 183 185 189 208 223 239 265 265 234 191 186 197 198 232 263 275 285 282 285 301 307 286 277 296 308 324 335 330 9 323 316 267 213 264 260 186 177 172 176 172 143 336 259 270 235 222 195 187 188 185 186 190 196 198 196 193 188 189 192
333 336 340 341 338 331 322 317 315 310 296 283 266 259 257 252 252 244 243 250 252 253 261 267 271 294 297 280 211 200 211 215 223 226 230 248 249 229 217 224 228 226 248 276 280 285 281 284 294 289 276 272 292 328 355 347 327 349 177 248 263 231 249 341 247 215 189 142 173 160 154 246 275 229 215 192 187 189 187 190 192 196 200 197 193 191 192 191
329 331 336 341 341 332 321 312 310 308 289 271 256 250 249 247 248 244 243 248 245 242 247 248 266 287 276 254 228 218 231 228 222 222 224 238 242 237 252 248 230 231 261 280 271 275 275 277 282 275 270 269 320 75 22 326 287 301 217 213 241 232 217 188 272 242 208 140 168 208 211 235 276 224 198 188 189 188 187 195 196 195 196 195 193 193 194 193
326 324 328 333 336 332 322 309 304 299 276 258 245 243 247 253 255 257 260 258 251 243 247 243 251 297 277 248 285 284 274 226 198 205 212 221 233 243 253 248 233 237 257 260 248 245 243 258 261 291 316 316 286 121 144 254 227 245 260 238 234 246 255 203 231 219 196 164 144 181 230 250 277 226 187 189 190 190 192 196 197 195 196 199 201 197 192 192
325 322 323 324 328 327 320 308 298 285 265 243 237 242 250 271 269 262 263 252 236 219 242 231 211 242 275 273 299 297 261 170 169 178 190 197 206 220 231 245 247 241 238 226 241 221 196 244 331 319 295 255 236 189 198 231 228 235 262 255 215 246 267 203 218 205 179 158 141 177 210 230 243 220 190 192 193 193 196 196 197 198 200 203 204 200 192 192
332 329 326 323 322 321 317 305 288 271 255 234 231 227 212 275 230 251 289 272 255 255 272 260 243 258 271 285 308 276 154 152 172 182 178 184 195 211 217 227 242 240 223 182 217 213 179 183 253 235 240 239 241 222 216 240 257 265 267 271 248 251 282 231 234 219 167 154 195 195 201 214 218 214 197 194 193 196 196 195 197 199 202 201 197 196 193 195
342 336 330 322 318 318 314 298 276 255 245 234 220 202 169 70 103 330 318 295 282 278 274 271 266 267 271 280 274 198 195 182 191 194 188 202 198 209 221 211 219 251 240 218 211 182 162 192 236 229 230 239 245 236 229 254 262 257 250 277 299 260 266 244 210 197 155 157 215 195 192 219 218 208 195 188 190 202 200 195 198 199 201 200 196 196 196 196
344 339 332 324 320 316 309 293 267 248 241 229 216 202 160 66 51 1 333 304 293 281 270 272 269 264 264 263 242 244 262 233 190 197 194 204 201 202 214 189 189 240 250 224 176 62 174 228 243 235 230 240 256 258 245 246 246 246 250 317 309 279 280 280 230 184 162 162 232 203 193 225 231 204 187 190 196 207 204 200 200 199 198 197 196 197 197 195
345 343 338 332 329 324 318 303 236 219 198 191 205 188 134 69 40 3 330 293 293 283 264 257 254 255 254 256 248 243 248 224 187 204 197 201 204 205 212 189 205 249 267 194 181 197 216 242 244 239 235 238 262 268 248 250 270 280 311 321 290 288 311 302 280 209 171 153 181 187 181 264 263 192 198 209 207 212 211 210 208 202 199 199 199 197 196 195
348 349 345 343 346 348 72 118 141 127 127 121 142 157 116 55 30 0 337 295 293 283 254 238 242 250 249 254 253 227 230 221 215 213 199 203 203 198 214 215 214 252 252 226 203 208 227 246 248 242 230 226 243 260 247 308 331 306 288 262 261 282 246 212 262 221 131 64 139 121 56 316 251 182 226 222 212 226 223 216 216 209 204 202 201 199 198 201
352 355 354 360 17 66 96 116 124 108 97 74 69 124 105 31 23 3 349 347 296 283 250 227 234 244 238 235 232 218 221 231 245 235 205 206 204 194 218 218 205 246 257 253 229 223 241 249 248 237 221 217 214 243 244 99 333 310 280 241 240 270 264 244 264 173 62 9 204 132 78 290 270 199 228 219 201 230 223 210 215 210 204 201 200 200 202 205
355 360 2 15 72 74 73 95 95 81 72 58 56 108 115 23 21 1 356 44 324 273 191 195 209 222 222 221 220 206 226 266 252 244 218 211 209 205 226 223 201 248 262 272 264 239 257 256 243 215 213 204 150 255 249 143 109 304 261 242 241 252 258 256 272 63 82 244 233 158 147 249 298 236 228 202 195 224 222 216 217 209 203 201 201 203 205 205
357 4 11 40 85 47 60 79 65 49 42 44 53 82 106 48 24 353 7 35 331 222 156 177 188 196 207 206 196 165 15 294 251 243 224 211 209 209 225 259 263 266 269 355 352 270 278 303 303 249 177 88 117 256 252 140 121 262 255 255 262 245 233 246 272 305 232 244 291 10 122 156 271 259 223 162 184 228 232 231 222 212 207 204 205 206 207 207
357 6 18 56 76 59 85 79 49 33 29 44 56 65 92 61 351 340 81 53 310 188 153 179 187 194 179 179 185 192 238 289 75 230 217 204 204 201 213 236 231 264 275 23 314 278 278 298 301 332 24 18 213 228 226 139 143 249 253 247 256 253 235 246 274 276 263 5 310 303 76 109 271 294 86 140 180 229 231 229 221 212 206 204 205 206 207 208
356 7 20 50 109 103 107 72 39 39 33 52 72 87 114 113 311 2 81 90 230 229 187 168 178 189 168 166 193 215 242 286 228 185 191 194 202 204 229 237 221 255 271 212 239 271 278 280 276 256 285 249 232 230 196 158 202 254 271 274 289 317 316 308 269 263 342 29 267 257 166 128 271 299 97 140 198 232 231 230 220 209 204 203 203 202 203 204
354 6 22 30 130 134 134 83 59 66 46 183 151 130 134 212 2 64 47 151 184 221 152 148 176 164 153 152 224 224 227 274 240 176 182 194 205 221 237 240 223 241 286 251 247 268 271 284 289 263 236 233 235 244 206 207 251 289 344 355 349 343 345 355 303 146 59 284 259 245 186 130 89 273 208 171 216 218 217 226 217 205 201 203 204 201 199 201
351 359 26 50 116 137 152 126 113 28 34 152 174 175 54 28 80 87 85 246 213 251 84 154 210 153 145 150 227 229 207 256 234 164 185 204 208 232 253 271 247 358 338 313 295 290 283 289 286 231 224 222 219 307 289 300 326 26 40 36 359 333 347 0 354 51 107 246 269 242 165 115 114 251 229 225 246 225 195 204 207 195 196 202 205 202 200 201
351 346 0 232 187 192 224 239 246 332 25 140 131 25 41 55 44 130 221 300 318 215 190 189 208 167 164 169 195 218 197 239 230 177 183 192 188 217 204 197 185 43 330 281 289 305 301 279 265 227 227 204 119 343 319 330 345 14 36 48 12 328 344 344 321 350 195 249 274 172 129 96 202 243 218 218 246 242 198 199 199 192 192 198 203 202 200 200
331 319 303 274 250 240 246 239 228 229 183 147 51 32 62 75 1 231 225 280 248 202 179 169 181 168 158 168 225 216 188 223 237 210 182 175 189 218 220 209 172 119 251 247 303 327 332 312 336 34 291 195 142 150 290 318 304 280 251 107 123 240 346 303 288 327 279 275 287 149 108 56 288 285 217 209 231 224 205 205 202 197 194 195 201 201 199 201
301 301 305 287 259 241 211 175 194 192 159 71 42 58 66 68 263 246 223 249 242 207 175 159 172 167 162 186 220 189 183 232 228 200 161 154 192 251 248 229 177 145 207 280 335 6 23 334 344 11 297 211 166 193 190 172 212 232 187 137 139 163 173 256 246 292 279 273 304 0 65 120 194 262 231 216 228 198 189 198 198 197 196 193 195 196 196 200
286 289 301 291 255 213 168 163 175 173 141 40 49 70 82 194 267 286 281 271 290 31 332 186 162 167 184 208 219 191 191 223 218 197 183 160 172 236 223 201 175 166 127 82 272 6 56 293 277 310 329 63 250 249 185 125 283 261 145 106 309 193 167 214 218 202 232 281 328 356 56 170 194 281 336 0 299 150 149 175 179 177 184 183 182 188 193 199
289 290 296 283 247 191 159 174 171 155 116 52 59 63 187 205 233 267 307 297 335 11 343 331 166 178 211 220 232 213 203 214 195 178 208 165 126 305 269 157 186 173 139 129 246 355 41 291 281 337 3 8 298 280 230 130 263 282 18 265 251 195 142 136 289 265 58 51 324 14 61 352 358 356 350 5 0 39 101 161 167 162 171 177 180 188 194 200
294 299 296 269 222 174 150 160 155 141 89 65 78 206 236 240 236 243 337 344 4 16 1 350 17 18 287 232 242 218 205 222 171 156 233 163 75 333 338 31 10 32 143 124 62 333 69 295 297 12 1 337 345 332 297 36 23 334 292 252 257 4 94 111 340 343 30 39 300 18 80 35 46 138 321 341 313 282 278 208 169 153 167 178 184 192 200 204
302 309 299 207 164 151 143 142 140 134 86 73 87 249 234 265 273 340 4 354 5 24 29 28 25 17 15 4 329 355 43 306 190 158 217 99 98 326 336 29 17 21 54 83 69 331 49 320 294 10 355 334 6 15 357 354 355 334 268 259 63 34 344 354 48 19 344 326 304 19 50 66 134 198 250 281 251 254 268 253 196 163 179 185 189 196 203 207
317 319 308 167 146 130 130 137 142 132 76 63 277 268 245 264 288 9 24 14 9 34 28 3 20 29 29 32 3 8 33 3 337 125 123 71 116 308 1 37 19 30 51 71 80 282 60 51 285 330 343 332 14 29 12 344 342 343 345 359 37 133 208 284 352 135 272 269 156 36 20 3 254 233 221 226 232 236 244 240 217 195 196 195 195 198 202 206
334 335 315 172 153 125 126 138 138 120 88 180 189 253 273 275 309 18 32 29 26 37 17 337 16 28 17 29 24 15 25 359 355 26 52 48 89 314 10 33 16 35 54 66 67 352 60 59 305 311 335 2 32 356 5 358 339 351 11 11 358 341 321 317 338 45 126 147 119 82 44 285 271 260 227 235 244 243 241 242 244 228 214 208 208 206 204 208
353 343 281 169 153 127 130 138 139 127 174 259 202 252 274 282 340 15 31 33 38 36 22 14 25 28 22 23 19 9 12 0 12 33 30 28 61 34 5 23 33 45 53 52 41 21 32 45 347 322 335 359 294 293 345 31 358 356 61 26 350 341 16 24 343 325 55 84 140 134 116 285 291 333 359 308 305 313 300 183 141 239 223 214 217 216 214 215
3 1 164 165 163 146 128 132 225 202 180 282 249 244 276 66 20 14 24 28 37 34 19 22 23 20 31 22 11 16 20 24 28 34 54 53 58 19 1 23 39 56 75 58 0 335 72 93 50 321 297 280 282 287 338 32 13 29 48 12 357 8 30 29 319 303 344 10 358 105 105 276 298 354 24 19 11 12 19 42 68 76 97 108 113 155 214 224
347 341 170 177 185 194 112 113 320 271 239 279 261 254 19 58 35 20 21 20 32 34 18 21 15 16 27 24 27 25 17 31 39 27 35 74 51 9 8 33 46 50 68 68 337 333 0 69 38 322 301 300 309 321 357 22 23 19 355 356 358 353 354 324 278 282 320 330 3 67 63 283 316 349 12 25 33 35 30 29 36 48 65 82 93 102 131 206
343 339 120 181 200 218 237 179 295 308 299 303 310 46 52 57 43 30 23 11 16 25 15 0 2 16 19 20 40 42 33 41 37 31 30 49 31 7 9 29 56 53 55 156 198 351 344 56 55 10 344 339 340 345 349 354 8 12 331 334 340 338 342 334 319 4 0 273 158 109 136 239 295 346 10 19 29 35 31 33 39 42 49 66 85 95 114 166
356 354 11 72 199 217 257 21 340 284 314 347 16 34 36 51 44 43 49 26 19 29 34 8 11 30 31 21 29 34 44 53 34 41 39 9 4 2 3 18 41 35 20 71 120 79 69 123 92 80 32 328 328 325 316 320 333 333 322 331 336 337 339 335 338 19 324 278 140 124 172 215 297 1 23 20 26 30 25 31 41 46 51 58 71 84 105 148
24 18 352 8 78 177 333 12 29 323 309 20 29 358 12 55 41 39 48 36 22 30 45 28 19 30 27 18 26 15 17 37 38 50 47 10 354 344 358 23 40 29 20 28 32 42 89 73 99 137 162 208 221 243 259 284 321 326 337 344 343 335 329 325 341 319 234 249 346 264 185 126 358 1 16 16 27 36 26 26 32 39 49 52 50 58 82 155
41 60 352 352 16 20 11 12 17 15 32 54 51 348 28 57 28 28 42 44 31 32 45 33 23 29 17 6 32 15 356 18 39 32 21 6 340 327 354 24 43 30 25 28 21 28 101 31 6 125 157 227 227 261 289 333 350 353 357 352 349 351 359 20 348 286 208 137 315 292 0 72 17 354 4 6 23 39 35 31 31 32 41 48 42 25 322 262
48 74 52 25 316 311 15 338 340 13 41 45 49 27 41 49 32 24 36 49 44 37 35 28 19 21 20 15 55 33 358 10 24 8 2 1 347 345 356 12 38 28 23 26 26 46 114 34 358 44 24 345 349 346 345 0 9 19 16 360 358 12 24 36 16 346 92 96 324 318 58 70 31 2 2 350 2 32 43 44 42 40 44 44 33 10 319 305
43 54 10 11 329 252 313 320 341 46 43 23 44 40 43 48 30 15 18 38 46 33 39 54 13 12 28 36 64 62 14 19 1 339 0 7 349 348 353 332 14 20 17 16 21 33 77 15 353 38 30 356 354 350 350 11 31 33 21 9 13 21 25 33 28 31 63 75 68 60 66 64 35 1 351 358 18 40 46 45 43 41 42 35 18 349 320 323
43 39 345 344 345 330 342 352 30 70 40 20 48 27 34 57 34 12 35 51 61 20 35 55 25 28 48 45 58 70 15 7 260 287 325 3 344 347 9 316 334 5 5 355 345 12 58 320 326 52 46 337 330 338 344 26 63 46 22 13 17 22 22 27 25 22 43 60 53 48 53 46 18 1 356 13 34 44 41 38 39 37 36 30 14 344 324 328
59 48 359 340 342 346 352 8 38 73 42 19 31 13 33 53 32 22 49 50 51 44 43 60 52 47 52 44 49 25 320 314 279 278 288 292 284 259 261 294 325 350 344 305 303 353 69 336 325 68 60 305 293 331 337 32 76 50 24 11 11 21 24 24 24 20 20 26 36 41 37 1 349 1 359 7 27 39 37 32 33 34 31 24 7 344 329 328
63 53 15 3 6 1 2 13 30 48 49 11 18 41 60 66 54 52 52 35 38 46 60 67 58 40 34 29 9 329 317 313 299 295 294 284 275 263 255 265 278 278 266 306 315 280 142 120 37 81 76 280 282 316 335 32 64 40 19 4 4 21 27 24 25 19 15 18 36 47 24 313 332 358 0 359 12 27 36 32 31 34 32 21 6 350 337 328